Location: Champignolles
(47.0543°N, 4.5663°E)
Time: 08:24:18
(UTC+00:00)

deb Kosmos-1275 - Visible Passes

Search period start: 21 June 2021 00:00
Search period end: 01 July 2021 00:00
Orbit: 771 x 810 km, 83.0° (Epoch: 20 June)

Date Brightness Start Highest point End Pass type
(mag) Time Alt. Az. Time Alt. Az. Time Alt. Az.
21 Jun ? 00:15:34 12° SE 00:19:01 22° E 00:23:00 10° NE visible
21 Jun ? 01:56:19 19° SSW 02:00:02 55° WNW 02:05:18 10° N visible
21 Jun ? 23:46:54 10° ESE 23:49:31 14° E 23:52:08 10° NE visible
22 Jun ? 01:26:51 24° S 01:30:10 85° W 01:35:33 10° N visible
23 Jun ? 00:57:21 26° SSE 01:00:23 63° E 01:05:40 10° NNE visible
23 Jun ? 02:38:24 10° WSW 02:42:17 20° WNW 02:46:11 10° NNW visible
24 Jun ? 00:27:51 23° SE 00:30:41 40° E 00:35:38 10° NNE visible
24 Jun ? 02:08:36 15° SW 02:12:13 30° WNW 02:16:53 10° N visible
24 Jun ? 23:58:20 17° SE 00:01:03 26° E 00:05:24 10° NNE visible
25 Jun ? 01:39:05 22° SW 01:42:13 45° WNW 01:47:20 10° N visible
25 Jun ? 23:28:48 12° ESE 23:31:30 17° E 23:34:49 10° NE visible
26 Jun ? 01:09:33 29° SSW 01:12:19 70° W 01:17:39 10° N visible
26 Jun ? 02:53:32 10° WNW 02:54:48 11° WNW 02:56:03 10° NW visible
26 Jun ? 23:00:59 10° E 23:02:01 11° ENE 23:03:03 10° ENE visible
27 Jun ? 00:40:00 33° S 00:42:29 77° E 00:47:49 10° NNE visible
27 Jun ? 02:21:14 10° WSW 02:24:35 17° WNW 02:27:54 10° NNW visible
28 Jun ? 00:10:27 30° SSE 00:12:44 49° E 00:17:51 10° NNE visible
28 Jun ? 01:51:11 14° WSW 01:54:27 25° WNW 01:58:46 10° NNW visible
28 Jun ? 23:40:52 23° SE 23:43:04 32° E 23:47:43 10° NNE visible
29 Jun ? 01:21:37 22° SW 01:24:25 37° WNW 01:29:19 10° N visible
29 Jun ? 23:11:17 16° ESE 23:13:28 21° E 23:17:20 10° NE visible
30 Jun ? 00:52:02 31° SW 00:54:27 56° WNW 00:59:41 10° N visible
30 Jun ? 22:41:42 10° ESE 22:43:57 13° E 22:46:23 10° NE visible
